Weather reports worldwide

Advertisment
Weybourne, United Kingdom (3488): temperature & dewpoint: 15.01.2020 06:00:00 - 21.01.2020 06:00:00 (GMT)Weybourne, United Kingdom (3488): wind speed & gusts: 15.01.2020 06:00:00 - 21.01.2020 06:00:00 (GMT)Weybourne, United Kingdom (3488): wind direction: 15.01.2020 06:00:00 - 21.01.2020 06:00:00 (GMT)Weybourne, United Kingdom (3488): reduced air pressure: 15.01.2020 06:00:00 - 21.01.2020 06:00:00 (GMT)Weybourne, United Kingdom (3488): visibility: 15.01.2020 06:00:00 - 21.01.2020 06:00:00 (GMT)Weybourne, United Kingdom (3488): sunshine duration: 15.01.2020 06:00:00 - 21.01.2020 06:00:00 (GMT)Weybourne, United Kingdom (3488): precipitation: 15.01.2020 06:00:00 - 21.01.2020 06:00:00 (GMT)
Date & Time tt [°C] td [°C] ff [km/h] ff [kn] fx [km/h] fx [kn] dd ppp [hPa] vv [km] sd [min] rr [mm]
21.01.2020 06:00:00 - - - - - - - - - - -
21.01.2020 05:00:00 1,1 0,7 21 11 - - SSW 1041,4 6 0 0,0
21.01.2020 04:00:00 1,1 0,6 18 10 - - SSW 1041,6 6 0 0,0
21.01.2020 03:00:00 1,2 0,6 21 11 - - SSW 1041,8 7 0 0,0
21.01.2020 02:00:00 1,7 1,1 21 11 - - SSW 1041,9 9 0 0,0
21.01.2020 01:00:00 1,6 0,9 18 10 - - SW 1042,6 7 0 0,0
21.01.2020 00:00:00 1,7 1,1 18 10 - - SW 1043,0 9 - 0,0
20.01.2020 23:00:00 2,4 1,4 18 10 - - SW 1043,2 12 0 0,0
20.01.2020 22:00:00 2,9 1,5 21 11 - - SW 1043,7 14 0 0,0
20.01.2020 21:00:00 3,0 2,0 21 11 - - SW 1043,9 15 0 0,0
20.01.2020 20:00:00 3,1 2,1 21 11 - - SSW 1044,3 18 0 0,0
20.01.2020 19:00:00 3,6 2,4 22 12 - - SSW 1044,4 18 0 0,0
20.01.2020 18:00:00 4,0 2,7 21 11 - - SSW 1044,5 17 0 0,0
20.01.2020 17:00:00 4,7 2,5 18 10 - - SSW 1044,5 50 6 0,0
20.01.2020 16:00:00 6,2 2,4 13 7 - - SW 1044,7 35 60 0,0
20.01.2020 15:00:00 7,5 2,8 16 9 - - WSW 1045,0 40 60 0,0
20.01.2020 14:00:00 7,3 3,4 22 12 - - W 1045,3 35 60 0,0
20.01.2020 13:00:00 7,5 3,2 18 10 - - WSW 1046,1 29 60 0,0
20.01.2020 12:00:00 6,8 3,0 16 9 - - WSW 1046,7 24 60 0,0
20.01.2020 11:00:00 5,4 2,1 15 8 - - WSW 1047,2 19 60 0,0
20.01.2020 10:00:00 4,0 1,4 21 11 - - SSW 1047,2 16 48 0,0
20.01.2020 09:00:00 2,2 0,5 21 11 - - SSW 1047,4 14 0 0,0
20.01.2020 08:00:00 2,4 0,7 22 12 - - SSW 1047,4 19 0 0,0
20.01.2020 07:00:00 2,4 0,8 21 11 - - SSW 1047,1 17 0 0,0
20.01.2020 06:00:00 2,7 0,7 18 10 - - SSW 1047,1 25 0 0,0
20.01.2020 05:00:00 4,4 1,0 16 9 - - WSW 1046,9 45 0 0,0
20.01.2020 04:00:00 3,8 1,3 16 9 - - SW 1047,4 28 0 0,0
20.01.2020 03:00:00 3,8 1,1 18 10 - - WSW 1047,6 35 0 0,0
20.01.2020 02:00:00 2,6 0,7 13 7 - - SW 1048,2 35 0 0,0
20.01.2020 01:00:00 3,2 0,7 18 10 - - SSW 1048,1 30 0 0,0
20.01.2020 00:00:00 3,6 0,6 16 9 - - SSW 1047,8 50 - 0,0
19.01.2020 23:00:00 3,2 0,5 16 9 - - SSW 1047,6 45 0 0,0
19.01.2020 22:00:00 2,9 0,4 15 8 - - SSW 1047,8 35 0 0,0
19.01.2020 21:00:00 2,6 0,5 13 7 - - SSW 1047,8 30 0 0,0
19.01.2020 20:00:00 1,7 -0,3 13 7 - - SSW 1047,5 40 0 0,0
19.01.2020 19:00:00 2,2 0,3 13 7 - - SW 1047,2 45 0 0,0
19.01.2020 18:00:00 2,5 0,9 15 8 - - W 1047,0 45 0 0,0
19.01.2020 17:00:00 2,5 1,4 11 6 - - W 1046,7 18 0 0,0
19.01.2020 16:00:00 4,6 2,7 13 7 - - W 1045,7 16 60 0,0
19.01.2020 15:00:00 6,3 3,9 11 6 - - W 1045,4 13 60 0,0
19.01.2020 14:00:00 6,7 4,6 15 8 - - WNW 1044,9 9 60 0,0
19.01.2020 13:00:00 7,3 4,8 16 9 - - NNW 1044,8 8 60 0,0
19.01.2020 12:00:00 6,7 5,1 15 8 - - NW 1044,8 9 18 0,0
19.01.2020 11:00:00 6,5 5,1 15 8 - - WNW 1044,4 8 0 0,0
19.01.2020 10:00:00 6,1 4,9 21 11 - - WNW 1043,7 8 6 0,0
19.01.2020 09:00:00 5,9 4,5 18 10 - - WNW 1042,4 8 0 0,0
19.01.2020 08:00:00 6,1 4,2 22 12 - - NNW 1041,4 10 0 0,0
19.01.2020 07:00:00 5,9 4,1 22 12 - - NNW 1040,6 9 0 0,0
19.01.2020 06:00:00 5,5 3,9 26 14 - - WNW 1039,5 9 0 0,0
19.01.2020 05:00:00 5,5 3,7 22 12 - - NW 1038,6 8 0 0,0
19.01.2020 04:00:00 5,8 3,6 29 16 - - NNW 1037,9 12 0 0,0
19.01.2020 03:00:00 5,6 3,3 28 15 - - NW 1037,4 12 0 0,0
19.01.2020 02:00:00 5,6 3,6 26 14 - - NW 1036,9 11 0 0,0
19.01.2020 01:00:00 5,3 3,5 29 16 - - NW 1035,7 11 0 0,0
19.01.2020 00:00:00 5,3 3,0 29 16 - - NW 1034,7 12 - 0,0
18.01.2020 23:00:00 5,1 3,1 26 14 - - NW 1033,6 9 0 0,0
18.01.2020 22:00:00 5,2 3,2 28 15 - - NW 1032,8 14 0 0,0
18.01.2020 21:00:00 5,4 2,6 29 16 - - NW 1032,1 15 0 0,0
18.01.2020 20:00:00 5,4 2,6 31 17 - - NW 1031,4 23 0 0,0
18.01.2020 19:00:00 3,9 2,3 18 10 - - W 1030,6 26 0 0,0
18.01.2020 18:00:00 4,3 2,1 24 13 - - W 1029,6 35 0 0,0
18.01.2020 17:00:00 4,4 2,1 18 10 - - W 1028,9 26 0 0,0
18.01.2020 16:00:00 5,5 2,3 24 13 - - WNW 1027,8 18 54 0,0
18.01.2020 15:00:00 6,2 2,5 28 15 - - WNW 1027,0 16 60 0,0
18.01.2020 14:00:00 6,3 2,5 29 16 - - WNW 1026,5 19 60 0,0
18.01.2020 13:00:00 5,8 2,9 29 16 - - W 1026,1 20 60 0,0
18.01.2020 12:00:00 5,3 2,9 29 16 - - W 1025,7 18 60 0,0
18.01.2020 11:00:00 4,9 2,3 31 17 - - W 1024,9 24 60 0,0
18.01.2020 10:00:00 4,4 2,1 34 18 - - W 1024,4 27 60 0,0
18.01.2020 09:00:00 3,5 1,4 28 15 - - W 1023,4 30 18 0,0
18.01.2020 08:00:00 3,0 1,1 29 16 - - W 1022,4 27 0 0,0
18.01.2020 07:00:00 3,3 1,3 29 16 - - WSW 1021,2 24 0 0,0
18.01.2020 06:00:00 3,4 1,4 26 14 - - W 1020,4 29 0 0,0
18.01.2020 05:00:00 3,5 1,7 24 13 - - W 1019,8 25 0 0,0
18.01.2020 04:00:00 3,4 1,9 28 15 - - WSW 1019,3 30 0 0,0
18.01.2020 03:00:00 3,7 2,0 31 17 - - WSW 1018,7 50 0 0,0
18.01.2020 02:00:00 3,9 2,2 29 16 - - WSW 1018,0 50 0 0,0
18.01.2020 01:00:00 3,3 1,8 28 15 - - SW 1017,3 50 0 0,0
18.01.2020 00:00:00 3,2 1,7 26 14 - - SW 1016,8 50 - 0,0
17.01.2020 23:00:00 3,7 1,8 31 17 - - SW 1016,0 40 0 0,0
17.01.2020 22:00:00 4,1 1,8 31 17 46 25 SW 1015,6 50 0 0,0
17.01.2020 21:00:00 4,5 2,2 34 18 46 25 SW 1015,0 50 0 0,0
17.01.2020 20:00:00 4,7 2,5 34 18 46 25 SW 1014,4 50 0 0,0
17.01.2020 19:00:00 5,0 2,3 34 18 50 27 SW 1013,9 50 0 0,0
17.01.2020 18:00:00 5,0 2,3 34 18 48 26 WSW 1013,1 50 0 0,0
17.01.2020 17:00:00 5,3 3,1 31 17 46 25 W 1012,2 50 0 0,0
17.01.2020 16:00:00 4,8 3,3 42 23 65 35 W 1011,0 50 0 0,2
17.01.2020 15:00:00 6,1 4,6 46 25 55 30 W 1008,7 40 6 0,0
17.01.2020 14:00:00 8,1 5,6 28 15 46 25 SW 1007,3 50 0 0,2
17.01.2020 13:00:00 9,7 6,4 26 14 - - SW 1007,3 40 6 0,0
17.01.2020 12:00:00 9,7 6,3 26 14 - - SSW 1007,5 50 54 0,0
17.01.2020 11:00:00 9,3 6,6 24 13 - - SSW 1007,7 50 30 0,0
17.01.2020 10:00:00 8,4 6,1 22 12 - - S 1007,5 50 0 0,2
17.01.2020 09:00:00 8,7 7,0 24 13 - - SSW 1007,3 45 0 0,2
17.01.2020 08:00:00 9,1 8,3 18 10 - - S 1007,6 21 0 0,0
17.01.2020 07:00:00 9,4 8,5 21 11 - - S 1007,4 19 0 0,0
17.01.2020 06:00:00 9,6 8,5 21 11 - - S 1007,6 21 0 0,0
17.01.2020 05:00:00 9,5 8,3 21 11 - - S 1007,7 28 0 0,0
17.01.2020 04:00:00 9,8 8,5 22 12 - - S 1008,1 45 0 0,0
17.01.2020 03:00:00 10,0 8,8 24 13 - - S 1008,2 35 0 0,0
17.01.2020 02:00:00 10,2 8,9 26 14 - - S 1008,3 40 0 0,0
17.01.2020 01:00:00 10,3 9,0 26 14 - - S 1008,6 40 0 0,2
17.01.2020 00:00:00 10,2 9,0 26 14 46 25 S 1008,8 45 - 0,2
16.01.2020 23:00:00 10,6 8,4 31 17 54 29 S 1008,6 40 0 0,2
16.01.2020 22:00:00 10,6 8,0 34 18 61 33 S 1008,5 19 0 0,2
16.01.2020 21:00:00 11,3 7,5 37 20 57 31 S 1008,5 45 0 0,0
16.01.2020 20:00:00 11,5 6,9 37 20 57 31 S 1008,4 40 0 0,0
16.01.2020 19:00:00 11,1 6,8 41 22 65 35 S 1008,4 50 0 0,0
16.01.2020 18:00:00 10,3 6,7 37 20 67 36 S 1008,9 50 0 0,0
16.01.2020 17:00:00 9,6 6,9 34 18 52 28 S 1009,9 30 0 0,0
16.01.2020 16:00:00 8,9 6,8 31 17 54 29 SSE 1010,3 30 0 0,0
16.01.2020 15:00:00 9,1 6,8 31 17 54 29 SSE 1011,5 30 6 0,0
16.01.2020 14:00:00 8,9 6,2 37 20 54 29 SSE 1012,5 45 6 0,0
16.01.2020 13:00:00 9,4 6,2 31 17 52 28 S 1013,5 30 18 0,0
16.01.2020 12:00:00 9,3 6,1 28 15 - - S 1015,1 40 36 0,0
16.01.2020 11:00:00 8,3 5,8 26 14 - - S 1016,5 26 6 0,0
16.01.2020 10:00:00 7,7 5,8 22 12 - - SSE 1017,3 45 6 0,0
16.01.2020 09:00:00 6,8 5,5 24 13 - - S 1017,7 25 0 0,0
16.01.2020 08:00:00 6,1 4,8 21 11 - - SSE 1018,1 22 0 0,0
16.01.2020 07:00:00 5,9 4,5 21 11 - - S 1018,4 22 0 0,0
16.01.2020 06:00:00 5,5 4,2 18 10 - - SSE 1018,8 21 0 0,0
16.01.2020 05:00:00 5,9 4,4 22 12 - - S 1018,8 19 0 0,0
16.01.2020 04:00:00 5,6 3,9 28 15 - - S 1018,9 29 0 0,0
16.01.2020 03:00:00 5,4 3,5 21 11 - - S 1018,5 35 0 0,0
16.01.2020 02:00:00 5,8 3,5 34 18 - - SSW 1017,5 30 0 0,0
16.01.2020 01:00:00 5,8 2,9 26 14 - - SSW 1017,1 40 0 0,0
16.01.2020 00:00:00 6,5 2,9 29 16 46 25 SSW 1016,6 40 - 0,0
15.01.2020 23:00:00 6,4 2,8 28 15 52 28 SW 1016,1 50 0 0,0
15.01.2020 22:00:00 6,7 2,9 31 17 50 27 SW 1015,0 50 0 0,0
15.01.2020 21:00:00 6,5 3,1 28 15 46 25 SW 1014,0 40 0 0,0
15.01.2020 20:00:00 6,5 3,3 28 15 48 26 SSW 1012,8 50 0 0,0
15.01.2020 19:00:00 6,7 3,6 29 16 - - SSW 1012,0 40 0 0,0
15.01.2020 18:00:00 6,8 4,0 26 14 - - SSW 1010,8 50 0 0,0
15.01.2020 17:00:00 6,9 4,0 26 14 - - SSW 1009,3 50 0 0,0
15.01.2020 16:00:00 7,6 4,4 29 16 46 25 SSW 1008,1 50 42 0,0
15.01.2020 15:00:00 8,5 5,3 34 18 48 26 SW 1006,4 40 60 0,0
15.01.2020 14:00:00 8,8 5,1 34 18 48 26 SW 1005,2 40 42 0,0
15.01.2020 13:00:00 8,1 5,8 26 14 - - SW 1004,3 50 0 0,0
15.01.2020 12:00:00 7,7 5,5 22 12 - - SW 1003,7 45 0 0,0
15.01.2020 11:00:00 7,5 5,7 24 13 - - SSW 1002,9 50 0 0,0
15.01.2020 10:00:00 7,0 5,5 22 12 - - SSW 1001,9 50 0 0,0
15.01.2020 09:00:00 7,0 4,9 24 13 - - SSW 1001,2 50 0 0,0
15.01.2020 08:00:00 6,8 5,7 22 12 - - SW 1000,4 50 0 0,2
15.01.2020 07:00:00 6,6 5,5 21 11 - - SSW 999,8 50 0 0,0
15.01.2020 06:00:00 6,7 5,9 16 9 - - SW 999,2 45 0 0,4

tt = temperature
td = dewpoint
ff = wind speed
fx = gusts
dd = wind direction
ppp = reduced air pressure
vv = visibility
sd = sunshine duration
rr = precipitation

Next stations